Time,TemperatureF,DewpointF,PressureIn,WindDirection,WindDirectionDegrees,WindSpeedMPH,WindSpeedGustMPH,Humidity,HourlyPrecipIn,Conditions,Clouds,dailyrainin,SoftwareType,DateUTC
2013-12-10 00:22:00,27.0,27.0,-100.00,North,-999,-999.0,-999.0,100,0.00,,,0.03,,2013-12-10 06:22:00,
2013-12-10 00:52:00,27.0,27.0,-100.00,North,-999,-999.0,-999.0,99,0.00,,,0.03,,2013-12-10 06:52:00,
2013-12-10 01:21:00,27.0,27.0,-100.00,North,-999,-999.0,-999.0,100,0.00,,,0.03,,2013-12-10 07:21:00,
2013-12-10 01:52:00,26.0,26.0,-100.00,North,-999,-999.0,-999.0,99,0.00,,,0.03,,2013-12-10 07:52:00,
2013-12-10 02:22:00,26.0,26.0,-100.00,North,-999,-999.0,-999.0,99,0.00,,,0.03,,2013-12-10 08:22:00,
2013-12-10 02:52:00,26.0,26.0,-100.00,North,-999,-999.0,-999.0,99,0.00,,,0.03,,2013-12-10 08:52:00,
2013-12-10 03:02:00,26.0,26.0,-100.00,North,-999,-999.0,-999.0,99,0.00,,,0.03,,2013-12-10 09:02:00,
2013-12-10 03:21:00,26.0,25.0,-100.00,North,-999,-999.0,-999.0,99,0.00,,,0.03,,2013-12-10 09:21:00,
2013-12-10 03:33:00,26.0,25.0,-100.00,North,-999,-999.0,-999.0,99,0.00,,,0.03,,2013-12-10 09:33:00,
2013-12-10 03:54:00,25.0,24.0,-100.00,North,-999,-999.0,-999.0,98,0.00,,,0.03,,2013-12-10 09:54:00,
2013-12-10 04:22:00,24.0,24.0,-100.00,North,-999,-999.0,-999.0,99,0.00,,,0.03,,2013-12-10 10:22:00,
2013-12-10 04:53:00,24.0,22.0,-100.00,North,-999,-999.0,-999.0,94,0.00,,,0.03,,2013-12-10 10:53:00,
2013-12-10 05:22:00,23.0,21.0,-100.00,North,-999,-999.0,-999.0,94,0.00,,,-99.99,,2013-12-10 11:22:00,
2013-12-10 05:43:00,23.0,21.0,-100.00,North,-999,-999.0,-999.0,95,0.00,,,0.03,,2013-12-10 11:43:00,
2013-12-10 05:53:00,23.0,21.0,-100.00,North,-999,-999.0,-999.0,95,0.00,,,0.03,,2013-12-10 11:53:00,
2013-12-10 06:22:00,22.0,20.0,-100.00,North,-999,-999.0,-999.0,93,0.00,,,0.03,,2013-12-10 12:22:00,
2013-12-10 06:32:00,22.0,20.0,-100.00,North,-999,-999.0,-999.0,93,0.00,,,0.03,,2013-12-10 12:32:00,
2013-12-10 06:52:00,22.0,19.0,-100.00,North,-999,-999.0,-999.0,91,0.00,,,-99.99,,2013-12-10 12:52:00,
2013-12-10 07:12:00,21.0,19.0,-100.00,North,-999,-999.0,-999.0,91,0.00,,,0.02,,2013-12-10 13:12:00,
2013-12-10 07:22:00,21.0,19.0,-100.00,North,-999,-999.0,-999.0,91,0.00,,,0.02,,2013-12-10 13:22:00,
2013-12-10 07:32:00,21.0,19.0,-100.00,North,-999,-999.0,-999.0,91,0.00,,,0.02,,2013-12-10 13:32:00,
2013-12-10 07:42:00,21.0,19.0,-100.00,North,-999,-999.0,-999.0,91,0.00,,,0.02,,2013-12-10 13:42:00,
2013-12-10 08:22:00,21.0,20.0,-100.00,North,-999,-999.0,-999.0,93,-99.99,,,0.02,,2013-12-10 14:22:00,
2013-12-10 08:32:00,21.0,20.0,-100.00,North,-999,-999.0,-999.0,93,-99.99,,,0.02,,2013-12-10 14:32:00,
2013-12-10 08:42:00,21.0,20.0,-100.00,North,-999,-999.0,-999.0,93,-99.99,,,0.02,,2013-12-10 14:42:00,
2013-12-10 08:52:00,21.0,20.0,-100.00,North,-999,-999.0,-999.0,93,-99.99,,,0.02,,2013-12-10 14:52:00,
2013-12-10 12:22:00,34.0,17.0,-100.00,North,-999,-999.0,-999.0,49,-99.99,,,0.00,,2013-12-10 18:22:00,
2013-12-10 12:52:00,35.0,18.0,-100.00,North,-999,-999.0,-999.0,49,0.00,,,0.00,,2013-12-10 18:52:00,
2013-12-10 13:22:00,36.0,17.0,-100.00,North,-999,-999.0,-999.0,47,0.00,,,0.00,,2013-12-10 19:22:00,
2013-12-10 13:52:00,37.0,19.0,-100.00,North,-999,-999.0,-999.0,47,0.00,,,0.00,,2013-12-10 19:52:00,
2013-12-10 14:22:00,39.0,17.0,-100.00,North,-999,-999.0,-999.0,42,0.00,,,-99.99,,2013-12-10 20:22:00,
2013-12-10 14:52:00,40.0,18.0,-100.00,North,-999,-999.0,-999.0,41,0.00,,,0.00,,2013-12-10 20:52:00,
2013-12-10 15:22:00,40.0,17.0,-100.00,North,-999,-999.0,-999.0,39,0.00,,,-99.99,,2013-12-10 21:22:00,
2013-12-10 15:43:00,41.0,18.0,-100.00,North,-999,-999.0,-999.0,39,0.00,,,0.00,,2013-12-10 21:43:00,
2013-12-10 15:54:00,41.0,16.0,-100.00,North,-999,-999.0,-999.0,37,0.00,,,0.00,,2013-12-10 21:54:00,
2013-12-10 16:23:00,41.0,16.0,-100.00,North,-999,-999.0,-999.0,36,0.00,,,0.00,,2013-12-10 22:23:00,
2013-12-10 16:52:00,42.0,17.0,-100.00,North,-999,-999.0,-999.0,36,0.00,,,0.00,,2013-12-10 22:52:00,
2013-12-10 17:22:00,42.0,16.0,-100.00,North,-999,-999.0,-999.0,36,0.00,,,0.00,,2013-12-10 23:22:00,
2013-12-10 17:53:00,39.0,23.0,-100.00,North,-999,-999.0,-999.0,52,0.00,,,0.00,,2013-12-10 23:53:00,
2013-12-10 18:22:00,35.0,25.0,-100.00,North,-999,-999.0,-999.0,65,0.00,,,0.00,,2013-12-11 00:22:00,
2013-12-10 18:32:00,35.0,25.0,-100.00,North,-999,-999.0,-999.0,65,0.00,,,0.00,,2013-12-11 00:32:00,
2013-12-10 18:52:00,33.0,23.0,-100.00,North,-999,-999.0,-999.0,67,0.00,,,0.00,,2013-12-11 00:52:00,
2013-12-10 19:11:00,32.0,23.0,-100.00,North,-999,-999.0,-999.0,68,0.00,,,0.00,,2013-12-11 01:11:00,
2013-12-10 19:21:00,32.0,23.0,-100.00,North,-999,-999.0,-999.0,68,0.00,,,0.00,,2013-12-11 01:21:00,
2013-12-10 19:52:00,32.0,22.0,-100.00,North,-999,-999.0,-999.0,67,0.00,,,0.00,,2013-12-11 01:52:00,
2013-12-10 20:12:00,32.0,21.0,-100.00,North,-999,-999.0,-999.0,63,0.00,,,0.00,,2013-12-11 02:12:00,
2013-12-10 20:22:00,32.0,21.0,-100.00,North,-999,-999.0,-999.0,63,0.00,,,0.00,,2013-12-11 02:22:00,
2013-12-10 20:32:00,32.0,21.0,-100.00,North,-999,-999.0,-999.0,63,0.00,,,0.00,,2013-12-11 02:32:00,
2013-12-10 20:52:00,34.0,18.0,-100.00,North,-999,-999.0,-999.0,52,0.00,,,0.00,,2013-12-11 02:52:00,
2013-12-10 21:11:00,33.0,19.0,-100.00,North,-999,-999.0,-999.0,57,0.00,,,-99.99,,2013-12-11 03:11:00,
2013-12-10 21:22:00,33.0,19.0,-100.00,North,-999,-999.0,-999.0,57,0.00,,,-99.99,,2013-12-11 03:22:00,
2013-12-10 21:54:00,31.0,20.0,-100.00,North,-999,-999.0,-999.0,63,0.00,,,0.00,,2013-12-11 03:54:00,
2013-12-10 22:03:00,31.0,20.0,-100.00,North,-999,-999.0,-999.0,63,0.00,,,0.00,,2013-12-11 04:03:00,
2013-12-10 22:23:00,31.0,20.0,-100.00,North,-999,-999.0,-999.0,63,-99.99,,,0.00,,2013-12-11 04:23:00,
2013-12-10 22:52:00,32.0,18.0,-100.00,North,-999,-999.0,-999.0,56,0.00,,,0.00,,2013-12-11 04:52:00,
2013-12-10 23:03:00,32.0,18.0,-100.00,North,-999,-999.0,-999.0,56,0.00,,,0.00,,2013-12-11 05:03:00,
2013-12-10 23:22:00,32.0,19.0,-100.00,North,-999,-999.0,-999.0,57,0.00,,,0.00,,2013-12-11 05:22:00,
2013-12-10 23:33:00,32.0,19.0,-100.00,North,-999,-999.0,-999.0,57,0.00,,,0.00,,2013-12-11 05:33:00,
2013-12-10 23:53:00,31.0,19.0,-100.00,North,-999,-999.0,-999.0,59,0.00,,,-99.99,,2013-12-11 05:53:00,